STARLINK-4462, 53781

Orbit data source: Space-Track

STARLINK-4462, 53781 is a payload satellite owned by SpaceX/Seattle (US) in LEO that was launched on Sun, 11 Sep 2022 UTC via an FALCON 9 launch vehicle from the Air Force Eastern Test Range (AFETR). Payload-class satellites include a variety of spacecraft equipped with specific instruments for various scientific and technological missions. These include communications satellites like Starlink; space stations such as the ISS; scientific satellites like the Hubble; Earth observation satellites from companies like Planet Labs, Umbra, and HawkEye 360; GPS; miniature CubeSats for education and research; and military/defense satellites.

Loading next visibility...
Identifier
53781, 2022-111J
Orbit
LEO
Country
Flag of USUS
Related business
Manufacturer
SpaceX/Seattle
Mission
Operational Commercial Communications
Bus & Motor
STARLINK, Unknown motor
Mass
305 kg wet, ~290 kg dry
Launch date (UTC)
2022-09-11 (4 years ago)
Launch vehicle
FALCON 9
Launch site
Air Force Eastern Test Range (AFETR)
Object type
Payload
Rocket body
Debris
Shape & HBR
Box + 1 Pan, 10.1 m
Radar Cross Section
13.562 m², Large (>1 m²)

Expand to show TLE details & history
Last TLE update: 10 hours ago

TLE from 10 hours ago
0 STARLINK-4462
1 53781U 22111J   26264.25004630 -.00010291  00000-0 -28455-3 0  9993
2 53781  53.1605 112.4104 0000764  85.5412 290.7590 15.35396371  5753
Epoch: 2026-09-21T06:00Z
TLE epoch observation values (Epoch: 2026-09-21T06:00:04.000Z)
Latitude
12.97526°
Longitude
32.14565°
Altitude
459.701 km
Speed
7.639 km/s
True Right ascension
08h 09m 10s
True Declination
12° 53' 49"
Sunlit
Object was in daylight at epoch
Visualization orbit readout
Latitude
Unknown
Longitude
Unknown
Altitude
Unknown
Speed
Unknown
Apparent Right ascension
Unknown
Apparent Declination
Unknown
Sunlit
N/A
Visualization observer readout
Local Sidereal Time
08:43:44
Azimuth
Unknown
Elevation
Unknown
Doppler factor
Unknown
Orbital elements
Apogee altitude
460.523 km
Perigee altitude
459.478 km
Semi-major axis
6,838.137 km
Eccentricity
0.00008
Inclination
53.1605°
RAAN
112.4104°
Arg. of periapsis
85.5412°
True anomaly
290.75081°
Mean anomaly
290.759°
Eccentric anomaly
290.75491°
Mean motion
3.83828 °/min
Orbital period
93.79 mins
BSTAR
-0.00028455
Loading maneuver chart data...
Computing Atmospheric mass density...

Documentation

Showing up to 5 results
|